Weather Roundup
Issued by NWS Springfield, MO

Home | Current Version | Previous Version | Text Only | Print | Product List | Glossary On
Versions: 1 2 3 4 5 6 7 8 9 10 11 12 13 14 15 16 17 18 19 20 21 22 23 24 25 26 27 28 29 30 31 32 33 34 35 36 37 38 39 40 41 42 43 44 45 46 47 48 49 50
000
NZUS99 KSGF 300707
HRRSGF

HOURLY WEATHER
NATIONAL WEATHER SERVICE SPRINGFIELD MO
200 AM CDT SUN APR 30 2017

......SGF CWA......

CITY           SKY/WX    TMP DP  RH WIND       PRES   REMARKS
SPRINGFIELD    LGT RAIN  62  61  96 E9        29.71F
JOPLIN         CLOUDY    64  63  96 E7        29.61F
ROLLA          HVY RAIN  61  32  33 E14       29.77F
OSAGE BEACH    HVY RAIN  55  54  96 W7        29.83R FOG
BRANSON        LGT RAIN  63  63 100 E9G16     29.67F

......SURROUNDING SGF CWA......

CITY           SKY/WX    TMP DP  RH WIND       PRES   REMARKS
CHANUTE        CLOUDY    57  55  93 E12       29.61R
PARSONS        CLOUDY    58  56  93 VRB3      29.60R
COFFEYVILLE    CLOUDY    59  58  96 NE7       29.57F
EMPORIA        LGT RAIN  43  43 100 N14G26    29.68R FOG
GROVE OK       CLOUDY    63  61  94 CALM      29.59F
ROGERS AR      LGT RAIN  64  63  96 E14G20    29.62S
SILOAM SPRINGS CLOUDY    64  61  88 E6        29.59F
HARRISON AR    LGT RAIN  63  63 100 SE15G22   29.66F
NEAR YELLVILLE CLOUDY    64  61  88 E5        29.67F

......KANSAS AND MISSOURI......

CITY           SKY/WX    TMP DP  RH WIND       PRES   REMARKS
KANSAS CTY INT LGT RAIN  42  41  96 N18       29.72R FOG
DOWNTOWN KC    CLOUDY   N/A N/A N/A N9G16     29.72R
COLUMBIA       RAIN      47  47 100 N13       29.83F
SEDALIA        LGT RAIN  47  47 100 E17       29.75F
ST JOSEPH      LGT RAIN  42  42 100 N21       29.76F
ST LOUIS       RAIN      54  52  93 N6        29.84S FOG
SPIRIT OF STL  RAIN      53  53 100 N5        29.83S FOG
KIRKSVILLE     LGT RAIN  41   7  24 E14G22    29.82F
WICHITA        LGT RAIN  44  43  96 N18       29.63R FOG
TOPEKA         LGT RAIN  43  43 100 N20G26    29.71R FOG
OLATHE         CLOUDY    44  44 100 N15       29.69R FOG

......TENNESSEE......

CITY           SKY/WX    TMP DP  RH WIND       PRES   REMARKS
MEMPHIS        CLOUDY    77  68  73 S22G31    29.75F
NASHVILLE      MOCLDY    75  64  68 S10       29.92F

......ARKANSAS.......

CITY           SKY/WX    TMP DP  RH WIND       PRES   REMARKS
FAYETTEVILLE   CLOUDY    63  63 100 E6        29.62R THUNDER
FT SMITH       TSTM      66  63  90 SW3       29.61R FOG
LITTLE ROCK    TSTM      64  64 100 E5        29.67F FOG

......OKLAHOMA.......

CITY           SKY/WX    TMP DP  RH WIND       PRES   REMARKS
TULSA          CLOUDY    56  55  97 SW12      29.59R
PONCA CITY     LGT RAIN  49  47  93 VRB3      29.64  FOG
MCALESTER      CLOUDY    53  51  93 W8        29.67F
OKLAHOMA CITY  CLOUDY    47  46  97 NW7       29.66R

......IOWA............

CITY           SKY/WX    TMP DP  RH WIND       PRES   REMARKS
DES MOINES     DRIZZLE   41  38  89 NE17G23   29.90F
QUAD CITIES    CLOUDY    45  41  86 NE10      29.92R

......ILLINOIS........

CITY           SKY/WX    TMP DP  RH WIND       PRES   REMARKS
QUINCY         LGT RAIN  45  45 100 N7        29.88R
CHICAGO        LGT RAIN  43  41  93 NE15      29.96F FOG




USA.gov is the U.S. government's official web portal to all federal, state and local government web resources and services.